Flag for U.S.A. Weather past 2 weeks in Wilmington, Delaware, U.S.A.

Now
49 °F

Clear.


Feels Like: 46 °F
Forecast: 50 / 74 °F
Wind: 7 mph from Northwest

Location: New Castle County Airport

Current Time: May 22, 2015 at 6:15:37 AM

Latest Report: May 22, 2015 at 5:51 AM


Visibility: 10 mi

Pressure: 29.97 "Hg

Humidity: 86%

Dew point: 45 °F

Location of WilmingtonLocation

Historic Weather in Wilmington — Graph

°F

Wilmington temperature yesterday

Maximum temperature yesterday: 56 °F (at 9:51 AM)
Minimum temperature yesterday: 50 °F (at 2:51 PM)
Average temperature yesterday: 53 °F

Past Weeks' High & Low Weather Summary

 TemperatureHumidityPressure
High85 °F (May 18, 12:51 PM)100% (May 8, 2:51 AM)30.44 "Hg (May 8, 2:51 AM)
Low47 °F (May 14, 5:51 AM)25% (May 14, 4:51 PM)29.81 "Hg (May 12, 6:51 PM)
Average66 °F72%30.11 "Hg
* Reported May 7 4:51 AM — May 22 4:51 AM, Wilmington, Weather by CustomWeather, © 2015

Note: Actual official high and low records may vary slightly from our data, if they occured in-between our weather recording intervals... More about our weather records

Advertising

Wilmington weather history for previous 24 hours

 ConditionsComfort  
Time TempWeatherWind HumidityBarometerVisibility
4:51 AM
Fri, May 22
49 °FClear.8 mph90%29.94 "Hg9 mi
3:51 AM49 °FClear.10 mph90%29.91 "Hg8 mi
2:51 AM48 °FClear.7 mph93%29.91 "Hg8 mi
1:51 AM50 °FMostly cloudy.6 mph89%29.92 "Hg10 mi
12:51 AM50 °FPassing clouds.5 mph89%29.92 "Hg10 mi
11:51 PM
Thu, May 21
51 °FOvercast.3 mph89%29.93 "Hg10 mi
10:51 PM51 °FOvercast.3 mph89%29.92 "Hg10 mi
9:58 PM51 °FMostly cloudy.3 mph89%29.93 "Hg10 mi
8:51 PM51 °FMostly cloudy.6 mph89%29.94 "Hg10 mi
7:51 PM52 °FMostly cloudy.No wind86%29.95 "Hg10 mi
6:51 PM51 °FOvercast.5 mph83%29.93 "Hg10 mi
5:51 PM51 °FMore clouds than sun.6 mph86%29.93 "Hg10 mi
4:51 PM50 °FLight rain. Cloudy.5 mph86%29.95 "Hg10 mi
3:51 PM50 °FLight rain. Mostly cloudy.5 mph83%29.97 "Hg10 mi
2:51 PM50 °FLight rain. Overcast.No wind86%29.97 "Hg10 mi
1:51 PM51 °FLight rain. Overcast.7 mph80%30.00 "Hg10 mi
12:51 PM52 °FRain. Mostly cloudy.6 mph75%30.01 "Hg6 mi
11:51 AM54 °FLight rain. Overcast.6 mph69%30.03 "Hg10 mi
10:51 AM55 °FOvercast.6 mph57%30.02 "Hg10 mi
9:51 AM56 °FOvercast.3 mph51%30.03 "Hg10 mi
8:51 AM55 °FOvercast.5 mph51%30.02 "Hg10 mi
7:51 AM55 °FOvercast.7 mph49%30.01 "Hg10 mi
6:51 AM55 °FOvercast.7 mph49%30.01 "Hg10 mi
Weather by CustomWeather, © 2015

See weather overviewHow to use our weather pages